Temperature
-2 -2 -2 -2 -2 -2 -2 -2 -2 -2 -2 -2 -2 -2 -2 -2 -2 -1 -1 -1 -1 -1 -1 -1 -1 -1 -1 -0 -0 -0 -0 -0 -0 0 0 1 1 1 2 2 2 2 3
-2 -2 -2 -3 -3 -3 -2 -3 -3 -3 -3 -3 -3 -3 -2 -2 -2 -2 -2 -2 -2 -1 -1 -1 -1 -1 -1 -1 -1 -1 -1 -1 -1 -1 -0 -0 0 1 1 1 1 2 2
-3 -3 -3 -3 -3 -3 -3 -3 -3 -3 -3 -3 -3 -3 -3 -3 -3 -3 -2 -2 -2 -2 -2 -2 -2 -2 -1 -1 -1 -1 -1 -1 -1 -1 -1 -1 -1 -0 -0 0 0 1 1
-3 -3 -3 -4 -4 -4 -4 -4 -4 -4 -4 -4 -4 -3 -3 -3 -3 -3 -3 -3 -3 -2 -2 -2 -2 -2 -2 -2 -2 -2 -2 -2 -2 -2 -1 -1 -1 -1 -1 -1 -0 -0 0
-4 -4 -4 -4 -4 -4 -4 -4 -5 -5 -4 -4 -4 -4 -4 -4 -4 -4 -4 -4 -3 -3 -3 -3 -3 -3 -2 -2 -2 -2 -2 -2 -2 -2 -2 -2 -2 -2 -2 -1 -1 -1 -1
-4 -5 -5 -5 -5 -5 -5 -5 -5 -5 -5 -5 -5 -5 -4 -4 -4 -4 -4 -4 -4 -4 -3 -3 -3 -3 -3 -3 -3 -3 -3 -3 -3 -2 -2 -2 -2 -2 -2 -2 -2 -2 -2
-5 -5 -5 -5 -5 -5 -5 -5 -6 -5 -5 -5 -5 -5 -5 -5 -5 -5 -5 -5 -4 -4 -4 -4 -4 -4 -4 -3 -3 -3 -3 -3 -3 -3 -3 -3 -3 -3 -3 -3 -3 -3 -3
-5 -6 -6 -6 -6 -6 -6 -6 -6 -6 -6 -6 -6 -6 -6 -5 -5 -5 -5 -5 -5 -5 -5 -4 -4 -4 -4 -4 -4 -4 -4 -4 -4 -4 -3 -3 -3 -3 -3 -3 -3 -3 -3
-6 -6 -6 -6 -6 -6 -6 -6 -6 -6 -6 -6 -6 -6 -6 -6 -6 -6 -6 -6 -6 -5 -5 -5 -5 -5 -5 -5 -5 -4 -4 -4 -4 -4 -4 -4 -4 -4 -4 -4 -4 -4 -4
-7 -7 -7 -7 -7 -7 -7 -7 -7 -7 -7 -7 -7 -7 -7 -6 -6 -6 -6 -6 -6 -6 -6 -6 -6 -6 -5 -5 -5 -5 -5 -4 -4 -4 -4 -4 -4 -4 -4 -4 -4 -5 -5
-7 -7 -7 -7 -7 -7 -7 -7 -7 -8 -7 -7 -7 -7 -7 -7 -7 -7 -7 -7 -7 -7 -6 -6 -6 -6 -6 -6 -6 -5 -5 -5 -5 -5 -5 -5 -5 -5 -5 -5 -5 -5 -5
-8 -8 -8 -7 -7 -7 -8 -8 -8 -8 -8 -8 -8 -8 -8 -8 -7 -7 -7 -7 -7 -7 -7 -7 -7 -7 -7 -6 -6 -6 -6 -6 -6 -5 -5 -5 -5 -5 -5 -5 -5 -5 -5
-8 -8 -8 -8 -8 -8 -8 -8 -8 -8 -8 -8 -8 -8 -8 -8 -8 -8 -8 -8 -8 -8 -8 -8 -7 -7 -7 -7 -7 -7 -7 -6 -6 -6 -6 -6 -6 -6 -6 -6 -6 -6 -6
-9 -8 -8 -8 -8 -9 -9 -9 -9 -9 -9 -9 -9 -9 -9 -9 -9 -8 -8 -8 -8 -8 -8 -8 -8 -8 -8 -8 -7 -7 -7 -7 -7 -7 -7 -7 -7 -6 -7 -6 -6 -6 -6
-9 -9 -9 -9 -9 -9 -9 -9 -9 -9 -9 -9 -9 -9 -9 -9 -9 -9 -9 -8 -8 -8 -8 -8 -8 -8 -8 -8 -8 -8 -8 -8 -8 -8 -8 -7 -7 -7 -7 -7 -7 -7 -7
-10 -10 -10 -9 -9 -10 -10 -9 -9 -9 -9 -9 -9 -9 -9 -9 -9 -9 -9 -9 -9 -9 -9 -9 -9 -9 -9 -9 -9 -9 -9 -8 -8 -8 -8 -8 -8 -8 -8 -7 -7 -7 -8
-11 -11 -11 -10 -10 -10 -10 -10 -10 -10 -10 -10 -10 -10 -10 -10 -10 -10 -9 -9 -9 -9 -9 -9 -10 -10 -10 -10 -10 -9 -9 -9 -9 -9 -9 -9 -9 -8 -8 -8 -8 -8 -8
-11 -11 -11 -11 -11 -11 -11 -11 -11 -11 -11 -10 -10 -10 -10 -10 -10 -10 -10 -10 -10 -10 -10 -10 -10 -10 -10 -10 -10 -10 -10 -10 -9 -9 -9 -9 -9 -9 -9 -9 -9 -9 -9
-11 -11 -11 -11 -11 -11 -11 -11 -11 -11 -11 -11 -11 -11 -11 -11 -11 -11 -11 -11 -11 -11 -11 -11 -11 -11 -11 -11 -10 -10 -10 -10 -10 -10 -10 -10 -10 -10 -10 -10 -9 -9 -9
-12 -12 -12 -12 -12 -12 -12 -12 -12 -12 -12 -12 -11 -11 -11 -11 -11 -11 -11 -11 -11 -11 -11 -11 -11 -11 -11 -11 -11 -11 -11 -11 -11 -11 -10 -10 -10 -10 -10 -10 -10 -10 -10
-12 -12 -12 -12 -12 -12 -12 -12 -12 -12 -12 -12 -12 -12 -12 -12 -12 -12 -12 -12 -12 -12 -12 -12 -12 -12 -11 -11 -11 -11 -11 -11 -11 -11 -11 -11 -11 -11 -11 -11 -11 -11 -10
-13 -13 -13 -13 -13 -13 -13 -13 -12 -12 -13 -12 -12 -12 -12 -12 -12 -12 -12 -12 -12 -12 -12 -12 -12 -12 -12 -12 -12 -12 -12 -12 -12 -12 -12 -11 -11 -11 -11 -11 -11 -11 -11
-13 -13 -13 -13 -13 -13 -13 -13 -13 -13 -13 -13 -13 -13 -13 -13 -13 -13 -13 -13 -13 -13 -13 -13 -12 -12 -12 -12 -12 -12 -12 -12 -12 -12 -12 -12 -12 -12 -12 -12 -11 -11 -11
-13 -13 -13 -13 -13 -13 -13 -13 -13 -13 -13 -13 -13 -13 -13 -13 -13 -13 -13 -13 -13 -13 -13 -13 -13 -13 -13 -13 -12 -12 -12 -12 -12 -12 -12 -12 -12 -12 -12 -12 -12 -12 -12
-14 -14 -14 -14 -14 -14 -14 -14 -14 -14 -14 -14 -14 -14 -14 -14 -13 -13 -13 -13 -13 -13 -13 -13 -13 -13 -13 -13 -13 -13 -12 -12 -13 -13 -12 -12 -12 -12 -12 -12 -12 -12 -12
-14 -14 -14 -14 -14 -14 -14 -14 -14 -14 -14 -14 -14 -14 -14 -14 -14 -14 -14 -14 -13 -13 -13 -13 -13 -13 -13 -13 -13 -13 -13 -13 -13 -13 -13 -13 -13 -12 -12 -12 -12 -12 -12
Wind_Speed
5 4 4 4 5 4 4 5 4 4 4 4 5 5 5 5 4 4 4 5 6 5 5 5 6 5 5 4 4 4 5 4 7 6 4 3 4 5 6 7 8 8 8
4 4 4 4 4 4 4 5 4 4 5 5 5 5 5 5 5 5 6 6 6 6 6 6 6 5 6 5 4 5 5 5 6 7 6 4 5 4 5 5 5 6 7
3 4 4 4 4 5 5 5 5 5 5 5 5 5 6 6 5 5 6 6 7 7 7 7 7 6 6 5 6 6 5 5 5 6 6 4 4 4 4 5 5 5 6
3 4 4 5 5 5 5 5 5 5 5 5 5 6 6 6 6 6 6 6 6 7 7 7 7 7 7 7 7 6 6 5 5 5 5 4 4 4 3 4 5 4 5
3 4 5 5 5 5 5 5 5 5 5 5 5 5 5 5 6 6 6 6 6 6 6 6 7 8 9 8 7 6 6 5 5 5 5 4 4 4 4 3 5 4 5
4 4 4 4 4 5 5 5 5 5 5 5 5 5 6 6 8 10 8 6 6 6 6 6 6 7 8 9 10 9 8 7 7 6 6 6 5 5 4 4 4 4 5
4 4 4 4 5 6 5 5 5 5 5 5 5 5 6 7 10 10 10 7 6 6 6 6 5 6 7 6 8 9 8 8 9 7 7 7 6 6 5 6 5 6 6
3 4 4 4 5 5 5 6 6 5 5 5 6 6 6 7 9 10 10 6 5 6 6 6 6 6 6 7 6 6 6 6 7 6 6 7 7 7 7 7 7 6 5
3 4 4 4 5 5 5 6 5 5 5 5 6 6 6 7 9 9 9 5 5 6 6 6 6 6 9 9 7 6 6 6 7 9 9 8 9 9 7 4 5 5 6
4 4 4 4 5 5 6 5 5 5 5 5 6 5 6 6 9 9 9 4 5 5 5 5 7 8 9 9 6 6 7 6 5 5 5 6 5 6 7 6 5 5 5
4 4 4 4 5 5 5 5 4 5 5 5 6 5 6 6 7 9 9 4 5 5 4 4 5 8 9 10 9 6 8 7 5 4 4 4 4 4 5 5 5 5 6
4 3 4 4 4 3 3 4 4 4 4 5 5 5 4 5 6 7 8 8 6 4 4 4 5 8 9 9 7 6 8 6 3 3 3 4 4 4 4 4 5 6 6
3 3 3 4 3 3 3 4 3 4 4 4 4 4 4 4 4 7 8 8 7 5 4 6 7 8 7 5 6 6 5 3 2 3 3 3 3 3 3 3 4 4 5
3 3 3 3 2 3 3 3 3 3 4 4 4 4 4 4 4 4 4 5 6 5 4 5 6 6 5 5 4 3 3 3 3 3 3 3 2 2 3 3 3 3 3
4 3 3 3 2 2 3 2 3 3 4 4 4 4 4 4 5 7 5 4 4 4 3 2 1 2 2 2 2 2 2 2 2 2 2 3 3 3 3 3 3 3 3
4 4 3 2 2 2 2 3 5 4 5 5 5 4 4 5 7 6 6 5 5 3 2 1 2 2 2 2 2 3 2 2 2 2 3 3 3 3 3 3 3 3 4
3 3 3 3 3 2 2 2 3 4 5 5 5 5 5 5 5 4 4 3 3 2 1 1 2 2 3 2 2 3 3 3 3 2 3 3 4 3 3 4 4 4 4
4 4 4 2 2 3 2 2 2 2 3 3 4 5 5 5 5 4 4 2 1 2 1 2 2 3 3 2 2 3 3 3 3 3 3 3 4 4 4 4 4 4 4
4 3 3 3 2 2 2 2 2 2 2 2 2 3 5 5 5 4 4 1 1 2 2 2 2 3 3 2 3 3 3 3 3 3 3 3 3 4 4 4 4 6 5
3 6 5 3 3 2 2 1 1 1 2 2 2 2 2 2 2 2 2 1 1 2 2 3 3 3 3 3 3 3 3 3 3 3 3 3 4 4 4 5 5 5 5
3 4 6 4 3 2 2 2 1 1 2 2 2 3 4 2 2 2 2 2 2 2 3 3 3 3 3 3 3 3 3 3 3 3 4 4 4 4 4 4 4 5 5
3 3 3 3 3 2 2 2 2 2 2 2 3 4 5 3 2 2 2 3 3 3 3 3 3 3 3 3 3 3 3 4 4 4 4 4 4 4 4 4 4 4 5
3 3 3 3 3 4 4 3 3 3 3 3 3 3 3 3 3 3 3 3 3 3 3 3 3 4 4 4 4 4 4 5 5 5 5 5 5 4 4 4 5 5 6
2 3 3 3 3 3 3 3 3 3 3 3 3 3 3 3 3 4 4 4 4 4 4 4 4 5 6 6 5 6 7 8 8 7 7 6 5 5 5 5 5 6 6
2 3 3 3 3 3 3 3 3 4 4 4 4 4 4 4 4 4 4 3 4 4 5 5 5 5 7 8 8 8 10 12 11 8 7 5 6 6 5 5 5 6 6
2 3 3 3 3 3 3 3 3 4 4 4 4 4 4 4 4 4 4 4 4 4 5 5 6 7 8 8 9 11 12 12 12 11 7 5 5 5 6 5 6 6 6
Wind_Direction
215 207 206 213 223 219 222 228 235 243 243 242 247 250 252 256 258 252 259 257 244 248 251 253 260 264 257 253 251 249 254 256 262 279 282 278 271 274 282 279 277 272 267
210 211 210 216 219 223 233 238 242 241 245 246 247 246 249 253 250 249 256 263 245 244 245 248 256 261 257 260 253 250 252 255 257 272 279 276 272 265 273 280 285 283 278
206 210 215 223 227 231 234 238 239 240 246 250 245 242 246 247 247 248 248 256 248 243 244 245 252 254 257 256 253 250 251 257 254 261 271 277 277 274 279 282 282 285 283
209 213 224 229 231 235 234 233 237 239 240 243 248 247 248 250 252 253 252 253 252 247 247 248 251 249 250 253 254 248 246 249 254 255 262 265 269 268 262 270 283 287 282
221 224 236 243 239 236 238 235 238 240 247 246 249 251 252 250 248 248 249 254 254 251 252 252 253 259 263 259 260 251 244 246 252 258 256 260 261 256 257 268 272 285 278
232 238 241 241 248 238 238 237 237 238 240 241 242 247 255 261 269 270 265 257 256 250 254 258 262 264 267 273 275 274 261 251 250 254 253 248 255 256 260 261 266 272 276
242 246 244 243 251 245 239 237 237 238 241 244 246 248 253 260 271 272 272 266 254 247 249 253 264 267 275 269 277 281 276 271 264 258 253 249 250 246 248 256 254 257 264
256 257 253 253 255 252 236 238 238 238 239 245 252 252 255 264 273 274 274 268 256 247 244 245 247 254 260 265 265 266 260 261 263 263 250 248 247 241 239 247 257 267 273
269 266 261 255 257 253 243 241 242 239 243 246 250 247 253 267 274 273 274 257 253 252 251 252 249 248 263 272 268 264 266 268 273 269 264 259 259 257 249 245 249 256 267
281 274 268 260 256 252 249 249 248 243 247 252 259 253 251 258 270 273 271 252 251 255 252 253 260 261 266 272 262 258 262 265 264 271 272 269 267 263 260 242 235 244 262
297 287 281 271 262 254 245 242 242 244 246 249 256 259 252 256 268 273 273 256 246 252 254 256 259 267 272 275 278 266 269 272 260 257 259 253 251 250 250 249 242 232 241
307 294 290 283 273 265 245 247 240 232 237 243 249 260 256 258 268 270 274 273 270 257 259 261 265 273 278 282 285 284 296 296 264 251 248 246 248 254 253 255 255 252 247
320 306 299 295 281 276 260 248 236 226 229 242 243 253 263 263 265 277 277 277 276 272 264 270 278 283 287 286 289 295 298 293 272 256 254 257 259 256 259 266 273 273 274
323 312 309 301 290 287 275 257 241 232 230 235 242 253 264 268 263 261 256 263 269 272 270 270 278 284 293 293 292 292 284 274 273 265 275 278 282 271 262 263 266 266 274
335 323 318 310 287 284 285 273 265 250 239 236 239 244 250 256 265 269 269 263 253 251 260 265 266 262 265 276 288 286 289 292 295 291 285 284 283 279 274 272 271 268 266
344 343 338 328 317 306 316 334 337 323 313 302 292 286 282 283 285 285 287 285 285 268 265 240 255 261 264 271 283 295 297 294 298 303 292 280 279 279 283 282 274 265 266
336 336 337 334 329 322 318 317 328 341 344 341 334 324 314 307 307 309 314 323 312 294 254 241 252 257 266 270 274 284 290 295 295 290 290 289 286 284 284 282 275 270 272
337 334 336 329 324 323 321 317 314 322 329 329 331 332 333 332 326 322 331 355 342 330 282 264 263 263 265 267 272 282 288 292 292 285 284 284 284 286 285 282 278 271 270
338 338 334 328 326 326 328 338 346 341 327 323 325 326 331 334 334 336 345 350 307 302 297 287 281 274 275 273 273 276 279 279 286 287 279 280 280 282 282 282 284 285 283
339 336 339 335 333 335 339 343 339 337 337 332 321 311 322 329 328 329 332 327 307 300 295 290 292 291 286 279 276 274 275 277 281 283 278 276 278 278 278 280 281 280 281
337 337 341 340 338 333 330 321 324 335 330 323 320 317 318 320 311 305 306 303 292 289 290 288 288 290 291 292 286 280 277 277 276 275 279 276 275 278 278 278 280 282 283
336 335 334 329 330 335 341 344 346 346 341 331 325 323 327 334 315 302 300 300 294 289 289 289 288 285 278 277 276 275 274 274 274 272 274 278 276 275 276 277 280 281 280
332 333 334 333 337 341 350 356 353 342 326 320 319 324 327 325 319 310 303 300 298 295 292 287 286 287 284 277 272 267 265 265 265 263 268 273 275 272 271 271 273 276 277
331 333 338 342 347 346 341 340 338 331 328 322 316 314 312 310 307 305 301 298 301 301 293 287 280 277 280 282 280 276 270 268 264 259 255 258 266 270 267 266 269 270 274
346 343 339 335 332 332 332 331 329 326 323 320 318 315 311 307 303 301 299 301 300 297 296 291 283 280 280 281 281 278 279 281 279 268 256 254 255 259 260 261 264 269 270
340 333 328 328 327 325 322 319 317 317 315 312 311 309 307 304 301 301 302 302 302 301 300 296 288 286 286 286 283 283 286 287 287 285 270 250 249 256 258 258 260 263 267
Height
1472 1473 1473 1475 1476 1476 1476 1476 1476 1477 1477 1478 1478 1479 1479 1479 1480 1480 1480 1480 1480 1480 1481 1481 1481 1481 1482 1481 1481 1481 1481 1481 1479 1477 1478 1479 1479 1480 1480 1481 1481 1481 1481
1467 1468 1468 1470 1470 1470 1470 1471 1471 1472 1472 1472 1473 1473 1474 1474 1474 1474 1474 1475 1475 1475 1475 1475 1475 1475 1476 1476 1475 1475 1475 1475 1474 1471 1471 1472 1473 1474 1474 1474 1474 1475 1475
1462 1462 1463 1464 1464 1465 1465 1465 1466 1466 1467 1467 1468 1468 1468 1468 1469 1469 1469 1469 1469 1470 1470 1470 1470 1470 1470 1470 1470 1470 1469 1469 1469 1467 1466 1466 1467 1468 1468 1468 1468 1468 1469
1457 1457 1458 1458 1459 1460 1460 1460 1460 1461 1461 1461 1462 1462 1463 1463 1463 1463 1463 1463 1463 1464 1464 1464 1464 1464 1463 1464 1464 1464 1464 1463 1463 1462 1461 1460 1461 1462 1462 1462 1461 1462 1462
1451 1452 1453 1453 1454 1454 1454 1454 1455 1455 1455 1456 1456 1457 1457 1457 1457 1457 1458 1458 1458 1458 1458 1458 1458 1458 1457 1458 1458 1458 1458 1458 1457 1456 1456 1455 1456 1456 1457 1457 1456 1456 1456
1447 1447 1448 1448 1448 1449 1449 1449 1449 1449 1449 1450 1450 1450 1451 1451 1451 1452 1453 1452 1452 1452 1452 1452 1452 1452 1452 1452 1452 1452 1453 1452 1452 1451 1451 1450 1450 1451 1452 1452 1451 1450 1449
1442 1442 1442 1442 1442 1442 1443 1443 1443 1443 1443 1443 1444 1444 1444 1445 1446 1446 1447 1447 1446 1446 1446 1446 1446 1446 1446 1446 1446 1446 1446 1446 1447 1446 1445 1444 1445 1445 1446 1445 1445 1445 1444
1437 1437 1437 1437 1437 1437 1437 1437 1437 1437 1437 1437 1438 1438 1438 1439 1440 1440 1441 1441 1441 1441 1440 1440 1440 1440 1440 1441 1440 1440 1440 1440 1440 1440 1440 1439 1440 1440 1441 1441 1440 1439 1438
1432 1431 1431 1431 1431 1431 1431 1431 1431 1432 1432 1432 1432 1432 1433 1433 1434 1434 1435 1435 1435 1435 1435 1435 1435 1435 1435 1436 1435 1434 1434 1434 1434 1435 1434 1434 1435 1435 1435 1435 1435 1434 1432
1428 1427 1426 1426 1425 1425 1425 1425 1426 1426 1426 1427 1427 1427 1427 1427 1428 1429 1430 1430 1429 1429 1429 1429 1430 1430 1430 1430 1430 1429 1428 1428 1428 1428 1428 1428 1428 1429 1429 1429 1429 1428 1427
1423 1422 1421 1421 1420 1420 1421 1421 1421 1421 1421 1422 1422 1422 1422 1422 1423 1424 1425 1425 1425 1425 1424 1424 1424 1424 1425 1425 1425 1424 1424 1424 1423 1422 1422 1422 1422 1422 1423 1423 1423 1423 1422
1419 1418 1417 1416 1416 1416 1416 1416 1416 1416 1417 1417 1417 1417 1417 1418 1418 1419 1419 1420 1421 1420 1419 1419 1419 1419 1420 1420 1419 1419 1419 1418 1417 1417 1417 1417 1417 1416 1417 1417 1417 1417 1417
1416 1414 1413 1413 1413 1412 1412 1412 1412 1412 1412 1412 1412 1412 1412 1413 1413 1414 1414 1415 1415 1415 1415 1415 1415 1415 1415 1414 1414 1414 1413 1413 1412 1412 1411 1411 1412 1411 1411 1411 1411 1411 1410
1413 1412 1411 1410 1409 1409 1409 1408 1408 1408 1409 1408 1408 1408 1408 1408 1409 1409 1409 1410 1410 1411 1410 1410 1410 1410 1410 1410 1409 1409 1409 1408 1408 1407 1407 1406 1407 1407 1406 1406 1405 1405 1404
1411 1409 1408 1407 1407 1406 1406 1406 1405 1405 1405 1405 1405 1405 1405 1404 1405 1405 1406 1406 1405 1406 1406 1406 1405 1405 1405 1405 1405 1405 1404 1404 1404 1403 1402 1402 1402 1402 1401 1401 1400 1399 1398
1409 1407 1406 1405 1405 1404 1403 1403 1402 1402 1402 1402 1402 1402 1402 1402 1402 1401 1402 1402 1402 1402 1402 1402 1401 1401 1401 1401 1401 1400 1400 1400 1399 1399 1398 1398 1397 1396 1396 1396 1395 1394 1393
1409 1406 1405 1404 1402 1401 1400 1399 1399 1399 1399 1399 1399 1399 1399 1399 1398 1398 1398 1398 1398 1398 1398 1398 1397 1397 1397 1397 1397 1397 1396 1396 1395 1395 1394 1393 1393 1391 1391 1390 1389 1389 1388
1408 1406 1404 1403 1401 1400 1399 1398 1397 1396 1396 1395 1396 1396 1396 1396 1395 1395 1395 1394 1394 1394 1394 1394 1394 1394 1394 1394 1393 1393 1393 1392 1392 1391 1390 1389 1388 1387 1386 1385 1384 1383 1382
1407 1405 1403 1402 1400 1399 1398 1396 1395 1395 1394 1393 1393 1393 1393 1393 1392 1392 1392 1391 1391 1390 1391 1391 1391 1391 1390 1390 1390 1389 1389 1388 1387 1387 1386 1386 1385 1384 1382 1381 1380 1379 1378
1406 1404 1403 1401 1399 1398 1397 1395 1394 1393 1392 1392 1391 1390 1390 1390 1390 1389 1389 1388 1388 1388 1388 1387 1387 1387 1387 1386 1386 1385 1385 1384 1383 1383 1382 1381 1381 1379 1378 1377 1376 1375 1373
1405 1403 1402 1400 1398 1397 1396 1394 1393 1392 1391 1390 1389 1389 1389 1388 1387 1387 1386 1386 1385 1385 1385 1384 1384 1383 1383 1382 1382 1381 1380 1380 1379 1378 1377 1377 1376 1375 1374 1373 1372 1371 1369
1404 1402 1401 1399 1398 1396 1394 1393 1392 1391 1390 1389 1387 1387 1386 1386 1385 1384 1383 1383 1383 1382 1382 1381 1380 1380 1379 1378 1378 1377 1376 1375 1374 1374 1373 1372 1371 1370 1369 1368 1367 1366 1365
1403 1401 1400 1398 1397 1395 1394 1392 1391 1390 1389 1387 1386 1385 1384 1383 1382 1381 1381 1381 1380 1379 1378 1377 1376 1376 1375 1375 1374 1373 1372 1371 1370 1369 1368 1367 1366 1366 1365 1364 1362 1361 1360
1402 1400 1399 1397 1396 1394 1392 1391 1390 1389 1387 1385 1384 1383 1382 1381 1380 1380 1379 1378 1377 1376 1375 1374 1373 1372 1371 1370 1369 1369 1368 1367 1366 1365 1364 1363 1362 1361 1360 1359 1358 1357 1356
1401 1399 1397 1396 1394 1393 1391 1390 1388 1387 1385 1384 1382 1381 1380 1379 1378 1377 1376 1374 1373 1372 1371 1370 1369 1368 1367 1366 1365 1364 1363 1362 1362 1361 1360 1359 1357 1356 1355 1354 1353 1352 1351
1400 1398 1396 1395 1393 1391 1390 1388 1386 1385 1383 1382 1380 1379 1378 1376 1375 1374 1372 1371 1370 1368 1367 1366 1365 1364 1363 1362 1361 1359 1358 1358 1357 1356 1355 1354 1353 1351 1351 1349 1348 1347 1346